Orbital Elements at Epoch 2459000.5 (2020-May-31.0) TDB
Reference: JPL 31 (heliocentric ecliptic J2000)
Element | Value | Uncertainty (1-sigma) | Units |
e | .05121909309362409 | 3.4638e-08 | |
a | 2.196206206596993 | 5.076e-09 | au |
q | 2.083718516448507 | 7.7529e-08 | au |
i | 1.265945010023906 | 3.4963e-06 | deg |
node | 183.4714354936721 | 0.00015696 | deg |
peri | 262.229975798416 | 0.00016062 | deg |
M | 267.5774754941712 | 3.4022e-05 | deg |
tp | 2459305.699223934577 (2021-Apr-01.19922393) | 0.00011252 | TDB |
period | 1188.798090118372 3.25 | 4.1214e-06 1.128e-08 | d yr |
n | .3028268660527152 | 1.0499e-09 | deg/d |
Q | 2.308693896745479 | 5.336e-09 | au |
|
| | Orbit Determination Parameters
Additional Information
|